Cosmos 1515 - Orbit

View from above orbital plane
View from above orbital plane
View from above satellite
View from above satellite

Ground track
Ground track

The orbit data is extracted from the following two-line orbital elements,

1 14551U 83122A   13137.80199816  .00003868  00000-0  24818-3 0  5783
2 14551 082.5156 202.2094 0009985 080.3803 035.9694 15.08191702344266
Epoch (UTC): 17 May 2013 19:14:52
Eccentricity: 0.0009985
inclination: 82.5156°
perigee height: 535 km
apogee height: 548 km
right ascension of ascending node: 202.2094°
argument of perigee: 80.3803°
revolutions per day: 15.08191702
mean anomaly at epoch: 35.9694°
orbit number at epoch: 34426

The dashed part of the orbit path shows where the satellite is in the earth's shadow,  

Developed and maintained by Chris Peat, Heavens-Above GmbH. Please read the updated FAQ before sending e-mail. Imprint. DLR